[[{"header":{"parameterUnit":"m.s-1","parameterCategory":2,"la1":30.2991,"la2":30.254,"lo1":-89.0895,"lo2":-89.0444,"dy":0.0017,"dx":0.0017,"nx":28,"ny":28,"refTime":"2024-10-16T21:00:00:Z","depth":"0","parameterNumber":2,"parameterNumberName":"U-component_of_CURRENTS"},"data":[0,0,0,0,0,0,0,0,0,0,0,0,0,0,0,0,0,0,0,0,0,0,0,0,0,0,0,0,0,0,0,0,0,0,0,0,0,0,0,0,0,0,0,0,0,0,0,0,0,0,0,0,0,0,0,0,0,0,0.2463,0.2463,0,0.2464,0.2464,0.2464,0.2447,0.2447,0.2447,0.2447,0.2411,0.241,0.2409,0,0,0,0,0,0,0,0,0,0,0,0,0,0.2448,0.2448,0.2463,0.2463,0.2463,0.2464,0.2464,0.2464,0.2447,0.2447,0.2447,0.2447,0.2411,0.241,0.2409,0,0,0,0,0,0,0,0,0,0,0,0,0,0.245,0.2448,0.2463,0.2457,0.2456,0.2465,0.2464,0.2464,0.2448,0.2447,0.2447,0.2446,0.2411,0.241,0.2409,0.241,0,0,0.2406,0.2405,0,0,0,0,0,0,0,0,0.245,0.245,0.2457,0.2457,0.2457,0.2457,0.2446,0.2445,0.2448,0.2448,0.2447,0.2446,0.2425,0.2422,0.2421,0.2409,0.2407,0.2406,0.2405,0.2405,0.2404,0,0,0,0,0,0,0,0.245,0.245,0.2461,0.2458,0.2457,0.2455,0.2455,0.2446,0.2436,0.2448,0.2448,0.2452,0.2424,0.2422,0.242,0.2407,0.2406,0.2405,0.2404,0.2404,0.2427,0.2428,0,0,0,0,0,0,0.2454,0.245,0.2461,0.2461,0.2455,0.2456,0.2455,0.2456,0.2437,0.2435,0.2452,0.2451,0.2424,0.2421,0.2419,0.2446,0.2405,0.2404,0.2403,0.2426,0.2427,0.2428,0,0,0,0,0,0,0.2454,0.2455,0.2461,0.2458,0.2459,0.2457,0.2457,0.2456,0.2458,0.2441,0.2437,0.2456,0.2424,0.242,0.2422,0.2443,0.2403,0.2402,0.2424,0.2426,0.2428,0.2484,0,0,0,0,0,0,0.2453,0.2455,0.2456,0.2458,0.2459,0.2472,0.2458,0.2456,0.2462,0.2461,0.2443,0.2439,0.2423,0.2424,0.2421,0.2441,0.2401,0.2422,0.2425,0.2427,0.248,0.2487,0.2493,0,0,0,0,0,0.2453,0.2455,0.2456,0.2458,0.2461,0.2473,0.2474,0.2469,0.2463,0.2468,0.246,0.244,0.2437,0.2424,0.2421,0.2441,0.2421,0.2424,0.2427,0.2477,0.2486,0.2493,0,0,0,0,0,0,0.2445,0.2454,0.2455,0.2459,0.247,0.2471,0.2476,0.2475,0.2473,0.2471,0.2451,0.2447,0.246,0.2444,0.243,0.2456,0.2428,0.243,0.2467,0.2475,0.2482,0.2489,0.2401,0,0,0,0,0,0.2447,0.2452,0.2463,0.2466,0.2474,0.2477,0.2481,0.2482,0.2482,0.2481,0.2471,0.2464,0.2469,0.2466,0.2464,0.2472,0.2473,0.2485,0.2492,0.2497,0.2503,0.2529,0.2538,0.2438,0.2438,0.2438,0,0,0.2443,0.2451,0.2452,0.2466,0.2472,0.2487,0.2478,0.2491,0.2503,0.2477,0.2487,0.2486,0.2478,0.2493,0.2497,0.248,0.2528,0.2501,0.2506,0.2508,0.2533,0.2543,0.2551,0.2439,0.2439,0.2439,0,0,0.2443,0.2449,0.2456,0.247,0.2488,0.2496,0.2503,0.2513,0.2518,0.2531,0.2524,0.2538,0.253,0.2539,0.254,0.2581,0.2564,0.2578,0.2613,0.2639,0.2647,0.2655,0.2675,0.2684,0.2578,0.2579,0.2579,0,0.244,0.2451,0.2461,0.2476,0.2491,0.2503,0.252,0.2531,0.254,0.2553,0.2541,0.2564,0.2556,0.2589,0.2605,0.2597,0.2604,0.2582,0.2647,0.2655,0.2661,0.2681,0.269,0.2582,0.2581,0.2581,0.2581,0,0.2447,0.2461,0.2469,0.2494,0.2512,0.253,0.2553,0.2571,0.2581,0.2592,0.2626,0.2626,0.2641,0.2647,0.2636,0.2684,0.2673,0.2655,0.2627,0.2675,0.2692,0.2701,0.2586,0.2585,0.2584,0.2583,0,0,0.2427,0.2467,0.247,0.2482,0.2526,0.2534,0.2576,0.2613,0.2636,0.2654,0.2687,0.2711,0.2715,0.2718,0.2716,0.2738,0.2794,0.2718,0.2718,0.2737,0.2852,0.2845,0.2853,0.2787,0.2788,0.279,0.2847,0,0.2433,0.2457,0.2485,0.2511,0.2526,0.2565,0.2598,0.2634,0.2666,0.2698,0.2725,0.2748,0.2741,0.275,0.2779,0.279,0.2818,0.278,0.2803,0.2803,0.2791,0.2863,0.2783,0.2828,0.2855,0.2856,0.2857,0,0.243,0.2448,0.2474,0.2517,0.2529,0.2548,0.2607,0.2639,0.2702,0.2728,0.2774,0.2792,0.2843,0.2818,0.2881,0.2857,0.2862,0.2867,0.2869,0.2848,0.2813,0.2783,0.2842,0.2807,0.287,0.2869,0.2868,0,0.2395,0.2439,0.2457,0.2471,0.2523,0.2545,0.2576,0.2642,0.2679,0.2745,0.2781,0.284,0.2871,0.2899,0.2931,0.2905,0.2992,0.2953,0.2955,0.2954,0.2884,0.2874,0.2909,0.2996,0.2996,0.2996,0.2996,0,0.2386,0.2395,0.2434,0.2439,0.2461,0.2509,0.2547,0.2595,0.267,0.2714,0.2785,0.2837,0.2893,0.2952,0.2959,0.3002,0.3021,0.2983,0.2979,0.2902,0.2894,0.2856,0.2826,0.2998,0.2998,0.2997,0.2997,0,0.2338,0.237,0.2383,0.2429,0.2441,0.2451,0.2519,0.255,0.2632,0.2697,0.2721,0.2847,0.293,0.2989,0.3046,0.3042,0.2998,0.3074,0.2984,0.2969,0.292,0.2895,0.2791,0.2688,0.3082,0.3082,0.3082,0,0.2314,0.2318,0.2354,0.236,0.2376,0.2402,0.2427,0.2511,0.2558,0.2698,0.273,0.2852,0.2929,0.3041,0.307,0.3109,0.3007,0.3037,0.2974,0.2932,0.29,0.2765,0.2675,0.2903,0.2902,0.2901,0.29,0,0.2268,0.2282,0.2294,0.2303,0.2317,0.2339,0.2384,0.2415,0.2521,0.2592,0.2699,0.2776,0.2928,0.2964,0.3044,0.3047,0.2906,0.3018,0.2994,0.2793,0.2625,0.2519,0.2851,0.2891,0.2892,0.2893,0.2893,0.2893,0.2229,0.2221,0.2236,0.2238,0.2255,0.2261,0.2249,0.2322,0.2377,0.2462,0.2598,0.2688,0.2837,0.2955,0.2946,0.2925,0.2855,0.2848,0.2831,0.2706,0.2572,0.2894,0.2916,0.2917,0.2918,0.2919,0.292,0,0.2169,0.2168,0.2171,0.216,0.214,0.2178,0.2208,0.2189,0.2213,0.235,0.243,0.2593,0.2672,0.2774,0.2844,0.2765,0.26,0.2693,0.249,0.2414,0.2739,0.27,0.2651,0.2651,0.2651,0.2651,0.2651,0.2651,0.2138,0.211,0.2106,0.2043,0.2034,0.1973,0.1965,0.1968,0.2041,0.212,0.2223,0.2347,0.2597,0.2774,0.2754,0.2671,0.2448,0.2352,0.2306,0.2578,0.259,0.2602,0.2561,0.2484,0.2483,0.1873,0.1868,0.1865]},{"header":{"parameterUnit":"m.s-1","parameterCategory":2,"la1":30.2991,"la2":30.254,"lo1":-89.0895,"lo2":-89.0444,"dy":0.0017,"dx":0.0017,"nx":28,"ny":28,"refTime":"2024-10-16T21:00:00:Z","depth":"0","parameterNumber":3,"parameterNumberName":"V-component_of_CURRENTS"},"data":[0,0,0,0,0,0,0,0,0,0,0,0,0,0,0,0,0,0,0,0,0,0,0,0,0,0,0,0,0,0,0,0,0,0,0,0,0,0,0,0,0,0,0,0,0,0,0,0,0,0,0,0,0,0,0,0,0,0,-0.0114,-0.0115,0,-0.0183,-0.0184,-0.0185,-0.022,-0.022,-0.022,-0.022,-0.0267,-0.0268,-0.0269,0,0,0,0,0,0,0,0,0,0,0,0,0,-0.0046,-0.0047,-0.0114,-0.0115,-0.0116,-0.0183,-0.0184,-0.0185,-0.022,-0.022,-0.022,-0.022,-0.0266,-0.0268,-0.0269,0,0,0,0,0,0,0,0,0,0,0,0,0,-0.0091,-0.0047,-0.0114,-0.0142,-0.0145,-0.0183,-0.0184,-0.0185,-0.022,-0.022,-0.022,-0.022,-0.0266,-0.0267,-0.0269,-0.0279,0,0,-0.0275,-0.0275,0,0,0,0,0,0,0,0,-0.0088,-0.0093,-0.0137,-0.014,-0.0144,-0.0193,-0.0177,-0.0215,-0.022,-0.0191,-0.022,-0.022,-0.024,-0.0244,-0.0257,-0.0281,-0.0283,-0.0275,-0.0276,-0.0277,-0.0277,0,0,0,0,0,0,0,-0.0085,-0.0091,-0.0141,-0.0138,-0.0142,-0.0162,-0.0168,-0.0185,-0.0214,-0.0194,-0.0196,-0.0204,-0.0242,-0.0255,-0.0258,-0.0283,-0.0275,-0.0276,-0.0277,-0.0278,-0.0314,-0.0314,0,0,0,0,0,0,-0.0075,-0.0087,-0.0139,-0.0143,-0.0116,-0.0163,-0.017,-0.0177,-0.0214,-0.022,-0.0204,-0.0206,-0.0252,-0.0256,-0.026,-0.026,-0.0277,-0.0278,-0.0279,-0.0315,-0.0314,-0.0314,0,0,0,0,0,0,-0.0074,-0.0079,-0.0136,-0.0117,-0.0126,-0.0164,-0.0172,-0.0178,-0.0188,-0.0223,-0.0228,-0.0207,-0.0252,-0.0257,-0.0271,-0.0263,-0.0279,-0.0281,-0.0315,-0.0315,-0.0314,-0.0269,0,0,0,0,0,0,-0.0071,-0.0078,-0.0078,-0.0117,-0.0127,-0.0151,-0.0172,-0.018,-0.0193,-0.0196,-0.0227,-0.0231,-0.0253,-0.0268,-0.0273,-0.0265,-0.0282,-0.0315,-0.0315,-0.0314,-0.0271,-0.0267,-0.0265,0,0,0,0,0,-0.0069,-0.0066,-0.0077,-0.0084,-0.0126,-0.0151,-0.0157,-0.0185,-0.0193,-0.0194,-0.0216,-0.023,-0.027,-0.0269,-0.0275,-0.0268,-0.0315,-0.0315,-0.0314,-0.0272,-0.0268,-0.0265,0,0,0,0,0,0,-0.0035,-0.007,-0.0084,-0.0091,-0.0116,-0.0156,-0.0159,-0.0179,-0.0199,-0.0198,-0.0229,-0.0236,-0.0246,-0.0263,-0.0262,-0.0279,-0.0295,-0.0295,-0.0261,-0.0257,-0.0254,-0.0233,-0.0284,0,0,0,0,0,-0.0028,-0.0034,-0.0071,-0.0076,-0.0085,-0.0121,-0.0133,-0.0152,-0.0176,-0.0185,-0.0209,-0.0231,-0.025,-0.0258,-0.0278,-0.0285,-0.0302,-0.0285,-0.0282,-0.0279,-0.0266,-0.029,-0.0287,-0.0314,-0.0314,-0.0314,0,0,-0.0017,-0.0036,-0.004,-0.0069,-0.0088,-0.0094,-0.0128,-0.0141,-0.0144,-0.0186,-0.0193,-0.0221,-0.025,-0.0261,-0.0266,-0.0273,-0.0281,-0.0279,-0.0276,-0.0265,-0.0289,-0.0286,-0.0284,-0.0313,-0.0313,-0.0313,0,0,0.0006,-0.0012,-0.0009,-0.0024,-0.005,-0.0071,-0.0071,-0.0108,-0.0121,-0.0137,-0.0166,-0.0186,-0.0218,-0.0236,-0.0249,-0.024,-0.0266,-0.0249,-0.0214,-0.0237,-0.0235,-0.0233,-0.0253,-0.0253,-0.0245,-0.0245,-0.0245,0,0.0023,0.0021,-0.0011,-0.0009,-0.0013,-0.0055,-0.0047,-0.0068,-0.0104,-0.0108,-0.013,-0.0175,-0.0204,-0.0211,-0.0212,-0.0231,-0.0249,-0.0224,-0.0232,-0.023,-0.0229,-0.0251,-0.0252,-0.0243,-0.0243,-0.0244,-0.0244,0,0.0047,0.0047,0.0051,0.0041,0.0033,0.0032,0.0002,-0.0007,-0.003,-0.0054,-0.0073,-0.0119,-0.0142,-0.016,-0.0185,-0.0189,-0.0206,-0.0226,-0.0238,-0.0224,-0.0247,-0.0249,-0.024,-0.0241,-0.0241,-0.0242,0,0,0.0082,0.0071,0.0073,0.0083,0.0061,0.006,0.006,0.0048,0.0056,0.0009,0.0013,-0.0036,-0.0065,-0.0082,-0.0119,-0.0144,-0.0161,-0.0178,-0.018,-0.0191,-0.021,-0.0222,-0.0225,-0.0184,-0.0184,-0.0184,-0.023,0,0.0113,0.0133,0.0118,0.0144,0.0155,0.0127,0.0135,0.012,0.0096,0.0088,0.0035,0.002,-0.0034,-0.0045,-0.0077,-0.0136,-0.0163,-0.0146,-0.0227,-0.0229,-0.0236,-0.0227,-0.0212,-0.0252,-0.0232,-0.0232,-0.0233,0,0.0144,0.0156,0.0185,0.0204,0.0208,0.0215,0.0228,0.0226,0.0201,0.0182,0.0152,0.011,0.0071,0.0018,-0.0068,-0.0055,-0.0124,-0.0178,-0.0181,-0.0206,-0.0244,-0.0264,-0.0257,-0.039,-0.0236,-0.0236,-0.0235,0,0.019,0.0207,0.0236,0.0239,0.0248,0.0261,0.0265,0.0255,0.0272,0.024,0.0248,0.0185,0.0165,0.0071,-0.0038,-0.0053,-0.0137,-0.0173,-0.025,-0.0252,-0.0261,-0.0263,-0.0383,-0.0235,-0.0235,-0.0235,-0.0235,0,0.0231,0.0255,0.0258,0.0274,0.0319,0.0307,0.0347,0.0339,0.0345,0.0377,0.03,0.0315,0.0177,0.0113,-0.0005,-0.0123,-0.0111,-0.0235,-0.0261,-0.0245,-0.0246,-0.0379,-0.047,-0.0237,-0.0237,-0.0236,-0.0236,0,0.0271,0.0272,0.0308,0.0327,0.0339,0.0368,0.0407,0.0439,0.0429,0.0469,0.0467,0.042,0.0338,0.0196,0.0051,-0.0065,-0.0275,-0.0238,-0.0208,-0.023,-0.0429,-0.0516,-0.0672,-0.0756,-0.0329,-0.0329,-0.033,0,0.0292,0.0313,0.0349,0.0379,0.0387,0.0426,0.0464,0.0476,0.052,0.0541,0.0577,0.0516,0.0494,0.0278,0.0065,-0.0137,-0.0288,-0.0272,-0.0303,-0.0431,-0.0549,-0.0614,-0.0679,-0.0302,-0.0302,-0.0303,-0.0303,0,0.0335,0.0343,0.0373,0.0431,0.0474,0.0529,0.0583,0.0636,0.0661,0.0704,0.0753,0.074,0.0546,0.0368,0.0086,-0.0074,-0.0381,-0.0282,-0.0423,-0.0542,-0.0612,-0.0707,-0.0284,-0.0304,-0.0304,-0.0304,-0.0304,-0.0304,0.0366,0.0393,0.0431,0.0488,0.0544,0.062,0.0671,0.0749,0.0833,0.0906,0.0893,0.0904,0.0639,0.0269,0.0033,-0.0377,-0.0404,-0.05,-0.0596,-0.065,-0.0734,-0.031,-0.0355,-0.0355,-0.0355,-0.0355,-0.0355,0,0.0402,0.0432,0.0487,0.0553,0.0617,0.0641,0.0746,0.0805,0.0914,0.1003,0.1049,0.0944,0.0604,0.023,-0.0298,-0.0609,-0.0753,-0.0799,-0.0893,-0.0947,-0.0568,-0.0568,-0.0649,-0.0649,-0.0649,-0.0648,-0.0648,-0.0648,0.0422,0.0472,0.0495,0.0596,0.0647,0.0732,0.079,0.0893,0.0979,0.1076,0.1108,0.1112,0.0851,-0.0066,-0.0727,-0.0909,-0.1166,-0.122,-0.1358,-0.1098,-0.1077,-0.1057,-0.1077,-0.1263,-0.1264,-0.1684,-0.1688,-0.1692]}],[{"header":{"parameterUnit":"m.s-1","parameterCategory":2,"la1":30.2991,"la2":30.254,"lo1":-89.0895,"lo2":-89.0444,"dy":0.0017,"dx":0.0017,"nx":28,"ny":28,"refTime":"2024-10-16T21:00:00:Z","depth":"2","parameterNumber":2,"parameterNumberName":"U-component_of_CURRENTS"},"data":[0,0,0,0,0,0,0,0,0,0,0,0,0,0,0,0,0,0,0,0,0,0,0,0,0,0,0,0,0,0,0,0,0,0,0,0,0,0,0,0,0,0,0,0,0,0,0,0,0,0,0,0,0,0,0,0,0,0,0.2441,0.2441,0,0.2446,0.2446,0.2445,0.2434,0.2433,0.2433,0.2433,0.2407,0.2407,0.2406,0,0,0,0,0,0,0,0,0,0,0,0,0,0.2425,0.2425,0.2441,0.2441,0.2442,0.2446,0.2446,0.2445,0.2434,0.2433,0.2433,0.2433,0.2408,0.2407,0.2406,0,0,0,0,0,0,0,0,0,0,0,0,0,0.2429,0.2425,0.2441,0.2438,0.2438,0.2446,0.2446,0.2445,0.2434,0.2433,0.2433,0.2433,0.2408,0.2407,0.2406,0.2407,0,0,0.2404,0.2404,0,0,0,0,0,0,0,0,0.2429,0.2429,0.2438,0.2438,0.2438,0.2441,0.2431,0.2432,0.2434,0.2433,0.2433,0.2433,0.2417,0.2416,0.2415,0.2406,0.2404,0.2404,0.2403,0.2403,0.2403,0,0,0,0,0,0,0,0.2429,0.2429,0.2441,0.2438,0.2438,0.2437,0.2437,0.2431,0.2424,0.2433,0.2433,0.2437,0.2417,0.2415,0.2414,0.2404,0.2404,0.2403,0.2403,0.2402,0.2433,0.2434,0,0,0,0,0,0,0.2433,0.2429,0.2441,0.2441,0.2435,0.2438,0.2438,0.2438,0.2425,0.2424,0.2437,0.2436,0.2417,0.2415,0.2413,0.2446,0.2403,0.2402,0.2402,0.2432,0.2433,0.2435,0,0,0,0,0,0,0.2432,0.2433,0.2441,0.2437,0.2438,0.2439,0.2439,0.2439,0.2444,0.2429,0.2426,0.2444,0.2417,0.2414,0.2421,0.2444,0.2402,0.2401,0.243,0.2432,0.2434,0.2491,0,0,0,0,0,0,0.2432,0.2433,0.2436,0.2437,0.2439,0.2453,0.244,0.2439,0.2448,0.2447,0.2434,0.2431,0.2416,0.2422,0.242,0.2442,0.2401,0.2429,0.2431,0.2433,0.2488,0.2495,0.2501,0,0,0,0,0,0.2431,0.2435,0.2436,0.2438,0.2442,0.2454,0.2455,0.2452,0.2448,0.2455,0.2451,0.2432,0.2436,0.2422,0.242,0.2442,0.2427,0.243,0.2433,0.2485,0.2493,0.2501,0,0,0,0,0,0,0.2426,0.2434,0.2436,0.2441,0.2452,0.2453,0.246,0.246,0.2461,0.2461,0.2444,0.2441,0.2458,0.2443,0.2428,0.2459,0.243,0.2433,0.2471,0.2479,0.2485,0.2491,0.24,0,0,0,0,0,0.2429,0.2435,0.2444,0.245,0.2457,0.2461,0.2466,0.2468,0.247,0.247,0.2463,0.246,0.2467,0.2467,0.2466,0.2478,0.2477,0.2493,0.25,0.2505,0.251,0.2534,0.2544,0.2444,0.2444,0.2444,0,0,0.2427,0.2434,0.2436,0.245,0.2457,0.2471,0.2463,0.2477,0.2491,0.2467,0.2482,0.2482,0.2477,0.2495,0.2501,0.2485,0.2535,0.2509,0.2514,0.2515,0.2538,0.2548,0.2557,0.2446,0.2446,0.2445,0,0,0.243,0.2437,0.2445,0.2458,0.2476,0.2483,0.2491,0.2501,0.2509,0.2525,0.2519,0.2536,0.2533,0.2543,0.2545,0.2588,0.2572,0.2588,0.2623,0.2647,0.2655,0.2663,0.2681,0.269,0.2588,0.2589,0.2589,0,0.2429,0.244,0.245,0.2465,0.248,0.2491,0.2509,0.2521,0.2532,0.2546,0.2536,0.2565,0.2559,0.2594,0.2611,0.2604,0.2611,0.2592,0.2656,0.2663,0.2669,0.2687,0.2695,0.2592,0.2591,0.2591,0.2591,0,0.2438,0.2452,0.2461,0.2485,0.2502,0.2521,0.2543,0.2564,0.2576,0.2587,0.2625,0.2628,0.2645,0.2653,0.2643,0.2692,0.2681,0.2663,0.2635,0.2683,0.2698,0.2706,0.2596,0.2595,0.2594,0.2593,0,0,0.2422,0.246,0.2463,0.2476,0.2518,0.2526,0.2569,0.2606,0.263,0.2652,0.2686,0.2714,0.272,0.2724,0.2724,0.2746,0.2801,0.2726,0.2726,0.2744,0.2854,0.284,0.2847,0.2794,0.2795,0.2796,0.2849,0,0.2428,0.2453,0.2479,0.2506,0.2521,0.2559,0.2593,0.2628,0.2662,0.2696,0.2725,0.2751,0.2746,0.2758,0.2786,0.2797,0.2823,0.2788,0.2806,0.2806,0.2787,0.2856,0.2609,0.2635,0.2857,0.2858,0.2859,0,0.2427,0.2445,0.2471,0.2514,0.2525,0.2545,0.2605,0.2637,0.2701,0.2728,0.2776,0.2794,0.2846,0.2823,0.2884,0.2861,0.2866,0.2871,0.2872,0.2843,0.2807,0.2621,0.264,0.2872,0.2871,0.287,0.2869,0,0.2395,0.2438,0.2457,0.2471,0.2522,0.2544,0.2576,0.2642,0.2679,0.2747,0.2783,0.2842,0.2874,0.2901,0.2931,0.2908,0.2988,0.2951,0.2945,0.2944,0.2729,0.2707,0.2992,0.2992,0.2991,0.2991,0.2991,0,0.2387,0.2397,0.2437,0.2441,0.2466,0.2513,0.2552,0.26,0.2675,0.2718,0.2789,0.284,0.2896,0.2951,0.2958,0.2993,0.3015,0.2971,0.2965,0.2744,0.2723,0.2918,0.2908,0.2993,0.2993,0.2992,0.2992,0,0.2343,0.2374,0.2388,0.2434,0.2447,0.2458,0.2527,0.2559,0.264,0.2704,0.273,0.285,0.2927,0.2984,0.3036,0.3029,0.3054,0.3054,0.2797,0.2762,0.2983,0.2976,0.3051,0.3051,0.3051,0.3051,0.3051,0,0.232,0.2324,0.2361,0.2368,0.2386,0.2414,0.2439,0.2523,0.2568,0.2704,0.2734,0.285,0.2916,0.3017,0.3015,0.3042,0.3078,0.2828,0.2744,0.3007,0.2993,0.2986,0.2979,0.2476,0.2471,0.2467,0.2464,0,0.2277,0.2291,0.2304,0.2314,0.233,0.2352,0.2398,0.2428,0.2532,0.2597,0.2694,0.2761,0.2876,0.2809,0.2869,0.2845,0.2807,0.2755,0.3087,0.2518,0.2474,0.2458,0.2468,0.243,0.2434,0.2436,0.2438,0.2439,0.2241,0.2234,0.2249,0.2253,0.227,0.2277,0.2265,0.2324,0.2372,0.2424,0.2562,0.2568,0.2618,0.2592,0.2534,0.2493,0.2689,0.2548,0.2555,0.2567,0.251,0.2471,0.2415,0.2418,0.2421,0.2424,0.2426,0,0.218,0.2183,0.2187,0.2178,0.2152,0.2196,0.2225,0.2184,0.2185,0.2255,0.23,0.2146,0.2121,0.2168,0.2063,0.2101,0.203,0.2006,0.1869,0.1907,0.1939,0.1844,0.1576,0.1573,0.157,0.1567,0,0,0.2149,0.212,0.2116,0.2051,0.2047,0.1977,0.1969,0.1934,0.1946,0.1898,0.1873,0.2001,0.2105,0.1793,0.178,0.1653,0.1754,0.1589,0.2277,0.2153,0.2181,0.2271,0.2172,0,0,0,0,0]},{"header":{"parameterUnit":"m.s-1","parameterCategory":2,"la1":30.2991,"la2":30.254,"lo1":-89.0895,"lo2":-89.0444,"dy":0.0017,"dx":0.0017,"nx":28,"ny":28,"refTime":"2024-10-16T21:00:00:Z","depth":"2","parameterNumber":3,"parameterNumberName":"V-component_of_CURRENTS"},"data":[0,0,0,0,0,0,0,0,0,0,0,0,0,0,0,0,0,0,0,0,0,0,0,0,0,0,0,0,0,0,0,0,0,0,0,0,0,0,0,0,0,0,0,0,0,0,0,0,0,0,0,0,0,0,0,0,0,0,-0.0051,-0.0052,0,-0.0117,-0.0117,-0.0118,-0.0154,-0.0154,-0.0154,-0.0154,-0.0203,-0.0204,-0.0205,0,0,0,0,0,0,0,0,0,0,0,0,0,0.0013,0.0012,-0.0051,-0.0052,-0.0053,-0.0117,-0.0117,-0.0118,-0.0154,-0.0154,-0.0154,-0.0154,-0.0202,-0.0204,-0.0205,0,0,0,0,0,0,0,0,0,0,0,0,0,-0.003,0.0012,-0.0051,-0.0079,-0.0082,-0.0116,-0.0117,-0.0118,-0.0154,-0.0154,-0.0154,-0.0155,-0.0202,-0.0203,-0.0205,-0.0212,0,0,-0.021,-0.0211,0,0,0,0,0,0,0,0,-0.0027,-0.0032,-0.0074,-0.0077,-0.008,-0.0128,-0.0113,-0.0149,-0.0154,-0.0126,-0.0154,-0.0155,-0.0176,-0.018,-0.0191,-0.0214,-0.0216,-0.0211,-0.0212,-0.0212,-0.0213,0,0,0,0,0,0,0,-0.0024,-0.0029,-0.0077,-0.0075,-0.0079,-0.0098,-0.0104,-0.012,-0.0149,-0.0129,-0.0131,-0.0139,-0.0178,-0.019,-0.0193,-0.0217,-0.0211,-0.0212,-0.0213,-0.0214,-0.0248,-0.0248,0,0,0,0,0,0,-0.0015,-0.0026,-0.0075,-0.0079,-0.0054,-0.0099,-0.0106,-0.0112,-0.0149,-0.0155,-0.0139,-0.0141,-0.0187,-0.0191,-0.0195,-0.0197,-0.0212,-0.0214,-0.0215,-0.0248,-0.0248,-0.0248,0,0,0,0,0,0,-0.0013,-0.0019,-0.0072,-0.0054,-0.0063,-0.01,-0.0107,-0.0113,-0.0124,-0.0157,-0.0163,-0.0143,-0.0187,-0.0192,-0.0206,-0.0199,-0.0215,-0.0216,-0.0249,-0.0248,-0.0248,-0.0205,0,0,0,0,0,0,-0.0011,-0.0018,-0.0018,-0.0054,-0.0063,-0.0086,-0.0107,-0.0114,-0.0129,-0.0132,-0.0162,-0.0167,-0.0188,-0.0203,-0.0208,-0.0202,-0.0218,-0.0249,-0.0249,-0.0248,-0.0207,-0.0204,-0.0201,0,0,0,0,0,-0.0009,-0.0006,-0.0017,-0.0023,-0.0063,-0.0086,-0.0092,-0.0119,-0.0129,-0.013,-0.0152,-0.0166,-0.0205,-0.0204,-0.021,-0.0204,-0.0249,-0.0249,-0.0248,-0.0208,-0.0204,-0.0201,0,0,0,0,0,0,0.0021,-0.0011,-0.0024,-0.0031,-0.0054,-0.0092,-0.0096,-0.0115,-0.0134,-0.0134,-0.0165,-0.0171,-0.0182,-0.0199,-0.0197,-0.0214,-0.0229,-0.023,-0.0197,-0.0194,-0.0191,-0.0171,-0.0219,0,0,0,0,0,0.0028,0.0022,-0.0012,-0.0017,-0.0026,-0.0059,-0.0072,-0.0089,-0.0113,-0.0122,-0.0146,-0.0168,-0.0185,-0.0193,-0.0213,-0.0219,-0.0237,-0.022,-0.0217,-0.0214,-0.0203,-0.0226,-0.0224,-0.0247,-0.0247,-0.0247,0,0,0.0037,0.002,0.0016,-0.001,-0.0029,-0.0034,-0.0067,-0.008,-0.0083,-0.0123,-0.0131,-0.0158,-0.0186,-0.0196,-0.0202,-0.0208,-0.0218,-0.0214,-0.0211,-0.0201,-0.0226,-0.0223,-0.0221,-0.0247,-0.0247,-0.0247,0,0,0.0058,0.004,0.0044,0.003,0.0006,-0.0014,-0.0014,-0.0049,-0.0062,-0.0077,-0.0105,-0.0126,-0.0156,-0.0173,-0.0185,-0.0176,-0.0203,-0.0185,-0.0152,-0.0175,-0.0173,-0.0172,-0.0193,-0.0194,-0.0181,-0.0181,-0.0181,0,0.0072,0.0071,0.0042,0.0044,0.0041,0.0001,0.0009,-0.0011,-0.0045,-0.0049,-0.0072,-0.0116,-0.0143,-0.0149,-0.015,-0.0168,-0.0186,-0.0162,-0.017,-0.0169,-0.0168,-0.0191,-0.0192,-0.0179,-0.018,-0.018,-0.018,0,0.0095,0.0096,0.0099,0.0091,0.0084,0.0084,0.0057,0.0047,0.0024,0.0001,-0.0017,-0.0062,-0.0084,-0.0101,-0.0125,-0.0129,-0.0147,-0.0165,-0.0176,-0.0163,-0.0188,-0.019,-0.0176,-0.0177,-0.0178,-0.0178,0,0,0.0126,0.0118,0.012,0.013,0.0111,0.0111,0.0111,0.0101,0.0109,0.0062,0.0066,0.0018,-0.0011,-0.0026,-0.0062,-0.0087,-0.0105,-0.012,-0.0122,-0.0135,-0.0156,-0.0169,-0.0173,-0.0128,-0.0128,-0.0128,-0.0177,0,0.0156,0.0177,0.0163,0.0189,0.02,0.0175,0.0184,0.017,0.0147,0.0138,0.0087,0.0072,0.002,0.0008,-0.0024,-0.0081,-0.0109,-0.009,-0.0172,-0.0174,-0.0182,-0.0175,-0.015,-0.0191,-0.0179,-0.018,-0.018,0,0.0186,0.0198,0.0226,0.0247,0.0251,0.0258,0.0272,0.0271,0.0248,0.0229,0.0198,0.0157,0.0119,0.0068,-0.0018,-0.0005,-0.0073,-0.0126,-0.0129,-0.0154,-0.019,-0.0203,-0.0196,-0.0184,-0.0184,-0.0183,-0.0183,0,0.0229,0.0247,0.0275,0.0279,0.029,0.0302,0.0307,0.0298,0.0315,0.0283,0.029,0.0229,0.0208,0.0115,0.0008,-0.0006,-0.0091,-0.0125,-0.0202,-0.0204,-0.0203,-0.0205,-0.0188,-0.0188,-0.0188,-0.0188,-0.0187,0,0.0268,0.0292,0.0296,0.0312,0.0356,0.0345,0.0384,0.0378,0.0384,0.0415,0.034,0.0353,0.0218,0.0154,0.0038,-0.0079,-0.0068,-0.0189,-0.0214,-0.0188,-0.0188,-0.0198,-0.0199,-0.0189,-0.0189,-0.0189,-0.0188,0,0.0306,0.0307,0.0344,0.0363,0.0375,0.0403,0.0442,0.0474,0.0464,0.0503,0.05,0.0453,0.0369,0.0231,0.0088,-0.0026,-0.0148,-0.0197,-0.0156,-0.0176,-0.0256,-0.0254,-0.0287,-0.0288,-0.0289,-0.0289,-0.029,0,0.0326,0.0347,0.0383,0.0411,0.042,0.0459,0.0496,0.0509,0.0552,0.0571,0.0606,0.0543,0.0518,0.0303,0.0097,-0.0101,-0.0139,-0.0223,-0.025,-0.0243,-0.0265,-0.0262,-0.0259,-0.0236,-0.0236,-0.0236,-0.0236,0,0.0367,0.0376,0.0405,0.0461,0.0504,0.0558,0.0612,0.0663,0.0689,0.0727,0.0772,0.0755,0.0563,0.0381,0.0104,-0.0037,-0.0191,-0.023,-0.0229,-0.0213,-0.0199,-0.0219,-0.0217,-0.0236,-0.0236,-0.0236,-0.0236,-0.0236,0.0398,0.0424,0.046,0.0516,0.0572,0.0646,0.0696,0.0769,0.0849,0.0903,0.0893,0.086,0.0662,0.0315,0.0085,-0.0178,-0.0176,-0.0279,-0.0278,-0.0276,-0.026,-0.0247,-0.0291,-0.0291,-0.0291,-0.0291,-0.0292,0,0.0433,0.0461,0.0514,0.0579,0.0642,0.0665,0.0769,0.082,0.0918,0.0964,0.0993,0.0806,0.0611,0.0363,-0.0012,-0.0229,-0.0249,-0.031,-0.028,-0.0278,-0.0277,-0.0259,-0.0291,-0.0292,-0.0292,-0.0293,0,0,0.0452,0.05,0.0523,0.0621,0.067,0.0754,0.0811,0.0896,0.0947,0.0991,0.0973,0.0947,0.0671,0.0406,0.0124,-0.009,-0.0146,-0.0141,-0.0119,-0.0049,-0.0046,-0.0236,-0.0205,0,0,0,0,0]}],[{"header":{"parameterUnit":"m.s-1","parameterCategory":2,"la1":30.2991,"la2":30.254,"lo1":-89.0895,"lo2":-89.0444,"dy":0.0017,"dx":0.0017,"nx":28,"ny":28,"refTime":"2024-10-16T21:00:00:Z","depth":"4","parameterNumber":2,"parameterNumberName":"U-component_of_CURRENTS"},"data":[0,0,0,0,0,0,0,0,0,0,0,0,0,0,0,0,0,0,0,0,0,0,0,0,0,0,0,0,0,0,0,0,0,0,0,0,0,0,0,0,0,0,0,0,0,0,0,0,0,0,0,0,0,0,0,0,0,0,0.1577,0.1578,0,0.1617,0.1617,0.1617,0.166,0.1661,0.1662,0.1662,0.172,0.172,0.1721,0,0,0,0,0,0,0,0,0,0,0,0,0,0.1532,0.1533,0.1577,0.1578,0.1578,0.1616,0.1617,0.1617,0.166,0.1661,0.1662,0.1663,0.1719,0.172,0.1721,0,0,0,0,0,0,0,0,0,0,0,0,0,0.1558,0.1533,0.1577,0.1606,0.1609,0.1616,0.1617,0.1617,0.166,0.1661,0.1662,0.1663,0.1719,0.172,0.1721,0.1705,0,0,0.1725,0.1726,0,0,0,0,0,0,0,0,0.1556,0.1559,0.1601,0.1604,0.1607,0.1636,0.1622,0.1648,0.1659,0.1638,0.1662,0.1664,0.1694,0.1697,0.1699,0.1708,0.171,0.1725,0.1726,0.1726,0.1727,0,0,0,0,0,0,0,0.1555,0.1558,0.1591,0.1601,0.1605,0.1615,0.1619,0.1627,0.1658,0.164,0.1644,0.1651,0.1696,0.1698,0.1701,0.1711,0.1725,0.1726,0.1727,0.1727,0.1815,0.1816,0,0,0,0,0,0,0.1553,0.1556,0.159,0.1592,0.1586,0.1615,0.162,0.1624,0.1657,0.1664,0.165,0.1653,0.1695,0.1699,0.1703,0.1777,0.1726,0.1727,0.1728,0.1813,0.1815,0.1817,0,0,0,0,0,0,0.1551,0.1555,0.1588,0.1577,0.1582,0.1614,0.1619,0.1624,0.1663,0.1665,0.1672,0.1687,0.1696,0.1701,0.1742,0.1776,0.1728,0.1729,0.1811,0.1814,0.1816,0.1866,0,0,0,0,0,0,0.155,0.1554,0.1574,0.1576,0.1583,0.1615,0.1618,0.1624,0.1664,0.1669,0.1698,0.1702,0.1698,0.1741,0.1744,0.1777,0.173,0.1809,0.1812,0.1815,0.1863,0.187,0.1877,0,0,0,0,0,0.1548,0.1563,0.1574,0.158,0.1603,0.1616,0.1621,0.1646,0.1665,0.1685,0.1709,0.1704,0.1762,0.1743,0.1746,0.178,0.1808,0.1811,0.1815,0.1859,0.1869,0.1876,0,0,0,0,0,0,0.1555,0.1569,0.1582,0.1602,0.1621,0.1625,0.1652,0.1666,0.1699,0.1717,0.1719,0.1725,0.1774,0.1771,0.175,0.1816,0.1786,0.179,0.1819,0.1828,0.1835,0.1836,0.1731,0,0,0,0,0,0.1565,0.1584,0.1594,0.1616,0.1629,0.1647,0.1664,0.1681,0.1702,0.172,0.1739,0.1764,0.1784,0.1803,0.1817,0.185,0.1852,0.1877,0.1884,0.189,0.1895,0.1929,0.1939,0.1829,0.1829,0.1829,0,0,0.1575,0.1586,0.1599,0.1621,0.164,0.1657,0.1662,0.1697,0.172,0.1719,0.1772,0.179,0.1799,0.1838,0.186,0.1845,0.1924,0.1894,0.1899,0.1901,0.1933,0.1944,0.1954,0.1831,0.1831,0.183,0,0,0.159,0.1616,0.1633,0.165,0.1684,0.1692,0.171,0.1736,0.1763,0.1804,0.1814,0.1855,0.1886,0.1899,0.1907,0.1963,0.1959,0.1976,0.2014,0.2047,0.2056,0.2064,0.2082,0.2091,0.198,0.198,0.198,0,0.1606,0.1624,0.1642,0.1661,0.1683,0.1711,0.1734,0.1757,0.1797,0.1823,0.1833,0.19,0.1912,0.1954,0.1978,0.1979,0.1994,0.1978,0.2056,0.2064,0.2071,0.2087,0.2096,0.1983,0.1983,0.1982,0.1982,0,0.1618,0.1649,0.1664,0.1695,0.172,0.1749,0.1777,0.1817,0.1856,0.1876,0.1944,0.1965,0.2005,0.2019,0.2016,0.2079,0.2071,0.2059,0.2031,0.2085,0.2099,0.2108,0.1987,0.1986,0.1985,0.1985,0,0,0.161,0.1663,0.1673,0.1695,0.1745,0.1759,0.1813,0.1857,0.1897,0.1949,0.2001,0.2048,0.2075,0.2087,0.2098,0.2129,0.2195,0.2125,0.2125,0.2137,0.2269,0.2131,0.2128,0.2203,0.2204,0.2206,0.2257,0,0.162,0.1656,0.1686,0.1731,0.175,0.18,0.184,0.1889,0.1939,0.1995,0.204,0.2092,0.2095,0.213,0.2165,0.219,0.2222,0.2182,0.222,0.222,0.2087,0.2134,0.2212,0.2264,0.2266,0.2267,0.2268,0,0.1615,0.1642,0.1687,0.1746,0.1763,0.1799,0.1876,0.1917,0.1997,0.204,0.2107,0.2142,0.2211,0.22,0.2277,0.2256,0.2273,0.2283,0.2285,0.2144,0.2099,0.22,0.2284,0.2283,0.2282,0.2281,0.228,0,0.1577,0.1641,0.168,0.17,0.177,0.1814,0.1861,0.1939,0.1984,0.208,0.2127,0.2202,0.2256,0.2296,0.2333,0.2318,0.2402,0.2376,0.2265,0.2256,0.2341,0.2332,0.2427,0.2427,0.2427,0.2427,0.2427,0,0.1554,0.1589,0.1672,0.1689,0.1743,0.1802,0.187,0.1929,0.2019,0.2067,0.2155,0.2199,0.2288,0.2343,0.2359,0.2339,0.2427,0.2277,0.2262,0.2361,0.2354,0.2347,0.2337,0.2429,0.2428,0.2428,0.2428,0,0.1499,0.1557,0.1604,0.1693,0.1726,0.1766,0.1871,0.191,0.2011,0.208,0.2118,0.2226,0.2287,0.2352,0.2416,0.2358,0.2358,0.233,0.244,0.243,0.2182,0.2175,0.2198,0.2194,0.219,0.2187,0.2185,0,0.1469,0.1491,0.1595,0.1627,0.1675,0.1746,0.179,0.1896,0.1936,0.2071,0.209,0.2197,0.2252,0.2227,0.2309,0.2324,0.2301,0.2283,0.222,0.2177,0.2161,0.2159,0.2157,0.2179,0.2178,0.2177,0.2176,0,0.1412,0.147,0.1509,0.1573,0.163,0.1675,0.1749,0.1763,0.1875,0.1988,0.2004,0.2031,0.2095,0.2132,0.2167,0.2174,0.228,0.2243,0.225,0.2191,0.2153,0.2141,0.2143,0.2163,0.2165,0.2166,0.2167,0,0.138,0.1394,0.1459,0.1499,0.1566,0.1577,0.1625,0.166,0.1708,0.1847,0.185,0.1959,0.2065,0.2056,0.2088,0.2086,0.2049,0.1973,0.1993,0.2008,0.1923,0.1847,0.1752,0,0,0,0,0,0.1334,0.1336,0.1374,0.1404,0.1464,0.1499,0.1582,0.1631,0.1737,0.17,0.1765,0.1809,0.184,0.1902,0.1863,0.2021,0.2071,0.1967,0.1997,0.2092,0.2106,0.2025,0,0,0,0,0,0,0.1302,0.1338,0.134,0.1314,0.1317,0.1361,0.1409,0.1483,0.1464,0.1582,0.1609,0.1702,0.1766,0.1844,0.1828,0.1849,0.183,0.2043,0.2038,0.2083,0.2097,0.2109,0.203,0,0,0,0,0]},{"header":{"parameterUnit":"m.s-1","parameterCategory":2,"la1":30.2991,"la2":30.254,"lo1":-89.0895,"lo2":-89.0444,"dy":0.0017,"dx":0.0017,"nx":28,"ny":28,"refTime":"2024-10-16T21:00:00:Z","depth":"4","parameterNumber":3,"parameterNumberName":"V-component_of_CURRENTS"},"data":[0,0,0,0,0,0,0,0,0,0,0,0,0,0,0,0,0,0,0,0,0,0,0,0,0,0,0,0,0,0,0,0,0,0,0,0,0,0,0,0,0,0,0,0,0,0,0,0,0,0,0,0,0,0,0,0,0,0,0.0071,0.0071,0,0.0033,0.0032,0.0032,0.0006,0.0006,0.0006,0.0006,-0.003,-0.0031,-0.0031,0,0,0,0,0,0,0,0,0,0,0,0,0,0.0106,0.0106,0.0071,0.0071,0.007,0.0033,0.0032,0.0032,0.0006,0.0006,0.0006,0.0006,-0.003,-0.003,-0.0031,0,0,0,0,0,0,0,0,0,0,0,0,0,0.0082,0.0106,0.0072,0.0053,0.0051,0.0033,0.0032,0.0032,0.0006,0.0006,0.0006,0.0006,-0.0029,-0.003,-0.0031,-0.0032,0,0,-0.0035,-0.0035,0,0,0,0,0,0,0,0,0.0084,0.0081,0.0056,0.0054,0.0052,0.0024,0.0031,0.001,0.0007,0.0024,0.0006,0.0005,-0.0012,-0.0014,-0.002,-0.0034,-0.0036,-0.0035,-0.0036,-0.0036,-0.0037,0,0,0,0,0,0,0,0.0085,0.0082,0.0056,0.0056,0.0053,0.0041,0.0037,0.0027,0.0009,0.0022,0.002,0.0015,-0.0013,-0.0019,-0.0021,-0.0036,-0.0035,-0.0036,-0.0037,-0.0037,-0.0055,-0.0054,0,0,0,0,0,0,0.0091,0.0084,0.0058,0.0055,0.0067,0.004,0.0036,0.0033,0.0009,0.0004,0.0016,0.0014,-0.0017,-0.002,-0.0023,-0.0019,-0.0036,-0.0037,-0.0038,-0.0055,-0.0055,-0.0054,0,0,0,0,0,0,0.0092,0.0089,0.0059,0.0068,0.0064,0.004,0.0037,0.0033,0.0026,0.0003,-0.0001,0.0013,-0.0017,-0.0021,-0.0029,-0.0021,-0.0038,-0.0039,-0.0055,-0.0055,-0.0054,-0.0016,0,0,0,0,0,0,0.0093,0.0089,0.0091,0.0069,0.0063,0.0052,0.0037,0.0032,0.0024,0.0021,0.0,-0.0004,-0.0018,-0.0027,-0.003,-0.0023,-0.004,-0.0055,-0.0055,-0.0055,-0.0017,-0.0014,-0.0012,0,0,0,0,0,0.0094,0.0096,0.0091,0.0088,0.0065,0.0052,0.0048,0.0031,0.0024,0.0023,0.001,-0.0003,-0.0026,-0.0027,-0.0031,-0.0024,-0.0056,-0.0055,-0.0055,-0.0019,-0.0015,-0.0012,0,0,0,0,0,0,0.0111,0.0093,0.0087,0.0083,0.0071,0.0048,0.0046,0.0034,0.0022,0.0022,0.0001,-0.0004,-0.0009,-0.0022,-0.0022,-0.0029,-0.0043,-0.0043,-0.0015,-0.0011,-0.0009,0.0001,-0.0041,0,0,0,0,0,0.0116,0.0115,0.0095,0.0094,0.0089,0.0069,0.0062,0.005,0.0036,0.003,0.0014,0.0,-0.0009,-0.0014,-0.0027,-0.0028,-0.0049,-0.0027,-0.0024,-0.0021,-0.0016,-0.0045,-0.0044,-0.0053,-0.0053,-0.0053,0,0,0.0122,0.0113,0.0112,0.0098,0.0087,0.0087,0.0064,0.0056,0.0058,0.0029,0.0027,0.0009,-0.0008,-0.0011,-0.0014,-0.002,-0.003,-0.0021,-0.0018,-0.0015,-0.0044,-0.0044,-0.0043,-0.0052,-0.0052,-0.0052,0,0,0.0136,0.0127,0.0131,0.0124,0.011,0.01,0.01,0.0079,0.0072,0.0066,0.0048,0.0035,0.0019,0.0008,0.0002,0.0014,-0.0015,0.0009,0.0033,0.0006,0.0006,0.0006,-0.0019,-0.0021,0.0012,0.0012,0.0012,0,0.0145,0.0148,0.013,0.0133,0.0134,0.011,0.0118,0.0108,0.0088,0.0087,0.0071,0.0046,0.0029,0.0029,0.0032,0.0021,-0.0,0.0023,0.001,0.001,0.0009,-0.0017,-0.002,0.0014,0.0014,0.0014,0.0013,0,0.016,0.0165,0.0168,0.0168,0.0166,0.0168,0.0155,0.0151,0.0138,0.0125,0.0116,0.0088,0.0074,0.0065,0.0053,0.0046,0.003,0.0016,0.0002,0.0012,-0.0016,-0.002,0.0017,0.0016,0.0016,0.0015,0,0,0.0178,0.018,0.0182,0.0193,0.0186,0.0188,0.0194,0.0193,0.02,0.0172,0.0175,0.015,0.0129,0.012,0.0097,0.0073,0.005,0.0047,0.0044,0.0025,-0.0012,-0.0017,-0.0022,0.003,0.003,0.003,-0.003,0,0.0199,0.0217,0.0213,0.0238,0.0248,0.0237,0.0248,0.0244,0.0231,0.0226,0.0192,0.0185,0.0152,0.0146,0.0116,0.007,0.0041,0.0067,-0.0021,-0.0023,-0.0027,-0.0026,0.0028,-0.0033,-0.0034,-0.0035,-0.0035,0,0.0219,0.0231,0.0257,0.028,0.0285,0.0296,0.0313,0.0318,0.0304,0.0292,0.027,0.0242,0.0212,0.0177,0.0098,0.0115,0.0056,0.0012,0.0008,-0.0011,-0.0035,-0.0046,-0.0043,-0.0042,-0.0042,-0.0041,-0.0041,0,0.0246,0.0266,0.0292,0.0298,0.0314,0.0329,0.0339,0.0338,0.0354,0.0332,0.0336,0.0287,0.0269,0.0189,0.0103,0.0098,0.0007,-0.0012,-0.0075,-0.0076,-0.0071,-0.0071,-0.0077,-0.0077,-0.0077,-0.0076,-0.0076,0,0.027,0.0294,0.0306,0.032,0.0359,0.0359,0.0395,0.0395,0.0403,0.0425,0.0373,0.0375,0.027,0.021,0.0117,0.0015,0.0016,-0.0069,-0.0091,-0.0053,-0.005,-0.0074,-0.0073,-0.0079,-0.0078,-0.0078,-0.0077,0,0.0293,0.03,0.0334,0.0359,0.0372,0.0398,0.044,0.0465,0.0463,0.0489,0.0488,0.0443,0.0363,0.0254,0.0127,0.0044,-0.006,-0.0101,-0.0046,-0.0064,-0.0131,-0.0127,-0.0176,-0.0177,-0.0177,-0.0178,-0.0178,0,0.0305,0.0323,0.0362,0.0387,0.0401,0.0439,0.0472,0.0492,0.0521,0.0532,0.0549,0.0491,0.0441,0.0267,0.0139,-0.0037,-0.0068,-0.013,-0.0139,-0.0125,-0.0141,-0.0137,-0.0132,-0.0179,-0.0179,-0.0179,-0.0179,0,0.033,0.0343,0.0368,0.0418,0.0458,0.0504,0.055,0.0579,0.0603,0.0609,0.0601,0.0512,0.0422,0.0277,0.0141,0.0011,-0.0094,-0.0137,-0.0137,-0.0146,-0.0129,-0.0144,-0.0139,-0.0181,-0.0181,-0.0181,-0.0181,0,0.0349,0.0368,0.0401,0.0445,0.0499,0.055,0.0573,0.0608,0.0637,0.0649,0.0645,0.0544,0.0488,0.0302,0.0178,0.0051,0.001,-0.0047,-0.0053,-0.0052,-0.0003,0.0037,0.002,0,0,0,0,0,0.0363,0.0383,0.0426,0.0472,0.0528,0.0557,0.0619,0.0638,0.0665,0.0668,0.0659,0.0574,0.0395,0.0323,0.0196,0.0151,-0.0023,-0.0005,-0.0093,-0.0192,-0.019,-0.0154,0,0,0,0,0,0,0.0371,0.0408,0.0423,0.0487,0.0521,0.0584,0.0623,0.0643,0.0644,0.0653,0.0568,0.0526,0.036,0.047,0.0189,0.0151,0.0073,-0.0084,-0.0087,-0.0193,-0.0191,-0.0189,-0.0152,0,0,0,0,0]}]]